Accueil
METAR-TAF:

METAR-TAF

Aéroports :

Fort Richardson, Alaska, États-Unis

latitude: 61-15-45N, longitude: 149-39-17W, altitude: 115 m

Observation

Le bulletin a été fait il y a 10 heures et 34 minutes, à 16:28 UTC
Vent calme
Température 10°C
Humidité 93%
Pression 1021 hPa
Visibilité: 12.9 km
Nuages fragmentés à une hauteur de 500 ft
Ciel couvert à une hauteur de 6500 ft

METAR: PAFR 191628Z AUTO 00000KT 8SM BKN005 OVC065 10/09 A3016 RMK AO2 BKN V OVC SLP220

Heure: 19:02 (03:02 UTC)


TAF: absent

Observations et prévisions météorologiques de plus de 4000 aéroports (messages METAR et TAF).

Les stations disponibles sont représentées par des disques jaunes et rouges sur la carte.

Passer la souris dessus pour voir le nom de la station.

Cliquer dessus pour voir les observations et prévisions météorologiques.

Pour changer de carte: cliquez sur les boutons verts avec une croix noire pour zoomer, sur le bouton vert avec un tiret pour effectuer un zoom arrière, ou sur les flèches vertes pour les cartes adjacentes.


METAR-TAF: